Regional Weather Roundup
Issued by NWS Grand Forks, ND

Home | Current Version | Previous Version | Text Only | Print | Product List | Glossary On
Versions: 1 2 3 4 5 6 7 8 9 10 11 12 13 14 15 16 17 18 19 20 21 22 23 24 25 26 27 28 29 30 31 32 33 34 35 36 37 38 39 40 41 42 43 44 45 46 47 48 49 50
000
ASUS43 KFGF 010031
RWRFGF
PRAIRIE TO PINES  WEATHER ROUNDUP
NATIONAL WEATHER SERVICE EASTERN NORTH DAKOTA/GRAND FORKS ND
700 PM CDT TUE SEP 30 2014

 **SATELLITE DATA USED TO AUGMENT SKY COVER AT AUTOMATED STATIONS**
 *****  WEATHER ACROSS EASTERN NORTH DAKOTA  *****

CITY           SKY/WX    TMP DP  RH WIND       PRES   REMARKS
GRAND FORKS    CLOUDY    59  47  64 SE15      29.65F
6HR MIN TEMP:  56; 6HR MAX TEMP:  62; 6HR PCP:  0.06;

GRAND FRKS AFB CLOUDY    56  53  87 SE8       29.65F
GRAND FRKS NWS   N/A     57 N/A N/A SE15        N/A
DEVILS LAKE    CLOUDY    54  45  71 SE20G31   29.57F
6HR MIN TEMP:  48; 6HR MAX TEMP:  55;

FARGO          CLOUDY    59  49  69 SE17G26   29.64F
WAHPETON ARPT  CLOUDY    55  46  71 SE20G26   29.67S
$$

 ***** WEATHER ACROSS CENTRAL AND WESTERN NORTH DAKOTA  *****

CITY           SKY/WX    TMP DP  RH WIND       PRES   REMARKS
BISMARCK       LGT RAIN  55  54  96 E21G26    29.38F FOG
6HR MIN TEMP:  53; 6HR MAX TEMP:  55; 6HR PCP:  0.02;

MINOT          CLOUDY    51  49  92 E12       29.52F FOG
6HR MIN TEMP:  49; 6HR MAX TEMP:  51; 6HR PCP:  0.09;

JAMESTOWN      RAIN      52  50  93 SE18G32   29.55S FOG
6HR MIN TEMP:  50; 6HR MAX TEMP:  53; 6HR PCP: TRACE;

MINOT AFB      CLOUDY    51  51 100 E13       29.53F
GARRISON         N/A     52  51  97 E13G21    29.48F
WILLISTON      CLOUDY    53  51  93 NE5       29.53S
6HR MIN TEMP:  52; 6HR MAX TEMP:  56; 6HR PCP:  0.28;

DICKINSON      CLOUDY    52  50  93 N8        29.46S
6HR MIN TEMP:  52; 6HR MAX TEMP:  53; 6HR PCP:  0.02;

HETTINGER      LGT RAIN  53  52  96 W13       29.47S FOG
6HR MIN TEMP:  52; 6HR MAX TEMP:  56; 6HR PCP:  0.02;

$$

 *****  OTHER AIRPORT OBSERVATIONS IN OUR AREA  *****

CITY           SKY/WX    TMP DP  RH WIND       PRES   REMARKS
WALHALLA         N/A     54  54 100 SE8       29.66F
GRAFTON AIRPOR CLOUDY    55  46  71 E13       29.65F
VALLEY CITY AR LGT RAIN  54  54 100 SE20G32   29.61R
CANDO          CLOUDY    54  48  82 SE21G29   29.60F
CAVALIER APRT  CLOUDY    55  48  76 E7        29.66F
GWINNER        MOCLDY    55  52  88 SE22G29   29.61R
SHEYENNE NWR     N/A     56  50  80 SE21      29.95
ROLLA          CLOUDY    50  50 100 E14G20    29.61F
 ***** THE ABOVE OBSERVATIONS ARE NON NWS ARE NOT QUALITY
       CONTROLLED AND MAY MIS-REPORT RAIN FOR SNOW...
$$

  *****  WEATHER ACROSS NORTHERN MINNESOTA  *****

CITY           SKY/WX    TMP DP  RH WIND       PRES   REMARKS
FLAG ISLAND    MOCLDY    55  46  71 SE8       29.80F
WARROAD        CLOUDY    55  46  71 E14       29.79S
ROSEAU         CLOUDY    57  45  62 E10G16    29.76F
HALLOCK        CLOUDY    57  45  62 E14       29.67F
THF RVR FALLS  CLOUDY    57  43  58 E17G23    29.70F
6HR MIN TEMP:  55; 6HR MAX TEMP:  57;

BAUDETTE       MOCLDY    54  43  66 SE13      29.82F
6HR MIN TEMP:  53; 6HR MAX TEMP:  58;

WASKISH        MOCLDY    54  45  71 E8        29.81F
CROOKSTON      MOCLDY    59  46  63 SE14G20   29.68S
STEPHEN NDAWN    N/A     57  46  67 SE13        N/A
GREENBUSH NDAW   N/A     57  45  62 E17         N/A
$$
  *****  WEATHER ACROSS CENTRAL AND WEST MINNESOTA  *****

CITY           SKY/WX    TMP DP  RH WIND       PRES   REMARKS
FOSSTON        MOCLDY    54  43  66 SE15G22   29.72F
BEMIDJI        MOCLDY    53  43  68 SE22      29.77F
PARK RAPIDS    MOCLDY    54  42  64 SE18G26   29.80F
6HR MIN TEMP:  50; 6HR MAX TEMP:  56;

ELBOW LAKE     FAIR      55  47  74 SE20G30   29.70F
6HR MIN TEMP:  52; 6HR MAX TEMP:  56;

WADENA         CLOUDY    54  43  66 SE18G24   29.78F
DETROIT LAKES  CLOUDY    54  45  71 SE16G26   29.74S
MOORHEAD       NOT AVBL
FERGUS FALLS   CLOUDY    57  45  62 SE22      29.69F
MORRIS MN      CLOUDY    57  48  72 SE21G29   29.71S
STAPLES        MOCLDY    52  43  71 SE10      29.81F
$$
  *****  WEATHER ELSEWHERE ACROSS MINNESOTA  *****

CITY           SKY/WX    TMP DP  RH WIND       PRES   REMARKS
DULUTH         CLOUDY    44  40  85 E18G25    29.96F
6HR MIN TEMP:  44; 6HR MAX TEMP:  49;

INTRNTL FALLS  PTCLDY    51  43  74 SE8       29.88F
6HR MIN TEMP:  50; 6HR MAX TEMP:  58;

ELY            CLEAR     45  37  76 SE10      29.97S
CLOQUET        CLOUDY    46  43  87 E13G22    29.94F
WHEATON        CLOUDY    55  48  76 SE22G29   29.68S
BRAINERD       MOCLDY    53  44  71 VRB7      29.84F
6HR MIN TEMP:  47; 6HR MAX TEMP:  54;

HIBBING        MOCLDY    46  40  79 SE14      29.94F
6HR MIN TEMP:  46; 6HR MAX TEMP:  56;

ALEXANDRIA     CLOUDY    54  45  71 SE24G31   29.78F
6HR MIN TEMP:  51; 6HR MAX TEMP:  56;

SAINT CLOUD    MOCLDY    56  44  64 SE12G17   29.86F
6HR MIN TEMP:  53; 6HR MAX TEMP:  59;

MINNEAPOLIS    MOCLDY    55  44  66 SE13      29.91S
6HR MIN TEMP:  53; 6HR MAX TEMP:  59;

$$

  *****  WEATHER ACROSS SOUTH DAKOTA  *****

CITY           SKY/WX    TMP DP  RH WIND       PRES   REMARKS
SIOUX FALLS    CLOUDY    66  61  84 S20G26    29.71S
6HR MIN TEMP:  60; 6HR MAX TEMP:  67; 6HR PCP:  0.02;

BROOKINGS      NOT AVBL
WATERTOWN      CLOUDY    63  58  83 S25G39    29.62F
6HR MIN TEMP:  52; 6HR MAX TEMP:  64;

HURON          CLOUDY    73  46  38 S14G21    29.56S
6HR MIN TEMP:  64; 6HR MAX TEMP:  77; 6HR PCP: TRACE;

SISSETON         N/A     56  52  86 S20       29.63F
ABERDEEN       CLOUDY    66  59  78 SE17      29.51R
6HR MIN TEMP:  58; 6HR MAX TEMP:  68; 6HR PCP:  0.10;

MITCHELL       MOCLDY    74  61  63 S20G30    29.60S
PIERRE         PTCLDY    65  52  62 SW20      29.52R
6HR MIN TEMP:  63; 6HR MAX TEMP:  72; 6HR PCP: TRACE;

MOBRIDGE       CLOUDY    63  53  70 SW20G36   29.40R
RAPID CITY     MOCLDY    65  44  46 W8        29.60R
6HR MIN TEMP:  54; 6HR MAX TEMP:  65; 6HR PCP:  0.06;

$$

  *****  SOME WEATHER IN NEARBY STATES *****

CITY           SKY/WX    TMP DP  RH WIND       PRES   REMARKS
GLASGOW MT     MOCLDY    63  52  67 SW5       29.51F
6HR MIN TEMP:  58; 6HR MAX TEMP:  65;

GREAT FALLS MT RAIN      50  45  83 NW9       29.77R
6HR MIN TEMP:  50; 6HR MAX TEMP:  63; 6HR PCP:  0.07;

CHEYENNE WY    CLOUDY    55  37  50 SW10      29.84S
6HR MIN TEMP:  55; 6HR MAX TEMP:  63;

SCOTTSBLUFF NE PTCLDY    66  42  41 W15       29.73R
6HR MIN TEMP:  65; 6HR MAX TEMP:  70; 6HR PCP: TRACE;

OMAHA NE       TSTM      66  63  90 SW12      29.82R FOG
6HR MIN TEMP:  66; 6HR MAX TEMP:  75; 6HR PCP:  0.80;

DES MOINES IA  CLOUDY    69  58  67 SE12      29.84R
6HR MIN TEMP:  63; 6HR MAX TEMP:  70;

DAVENPORT IA   NOT AVBL
CHICAGO IL     DRIZZLE   53  49  86 N7        30.01S
6HR MIN TEMP:  52; 6HR MAX TEMP:  58; 6HR PCP: TRACE;

EAU CLAIRE WI  MOCLDY    52  43  71 SE8       29.97S
6HR MIN TEMP:  50; 6HR MAX TEMP:  57;

LA CROSSE WI   MOCLDY    53  44  71 SE7       29.98S
6HR MIN TEMP:  52; 6HR MAX TEMP:  58;

$$

  *****  SOME NATIONAL WEATHER *****

CITY           SKY/WX    TMP DP  RH WIND       PRES   REMARKS
LA GUARDIA NY  CLOUDY    65  59  81 E8        29.95S
6HR MIN TEMP:  65; 6HR MAX TEMP:  68; 6HR PCP: TRACE;

RALEIGH NC     PTCLDY    65  62  90 CALM      29.89R
6HR MIN TEMP:  65; 6HR MAX TEMP:  75;

ATLANTA GA     PTCLDY    79  58  48 NW3       29.91R
6HR MIN TEMP:  78; 6HR MAX TEMP:  84;

NEW ORLEANS LA PTCLDY    82  71  69 SE10      29.84R
6HR MIN TEMP:  82; 6HR MAX TEMP:  88;

OKLAHOMA CITY  PTCLDY    83  58  42 S13       29.74S
6HR MIN TEMP:  83; 6HR MAX TEMP:  89;

ALBUQUERQUE NM PTCLDY    75  30  19 W7        29.91S
6HR MIN TEMP:  65; 6HR MAX TEMP:  76;

SALT LAKE CITY PTSUNNY   60  44  55 SW8       29.93R
6HR MIN TEMP:  57; 6HR MAX TEMP:  63; 6HR PCP: TRACE;

LOS ANGELES CA SUNNY     72  64  76 W15       29.77S


USA.gov is the U.S. government's official web portal to all federal, state and local government web resources and services.